Regional Weather Roundup
Issued by NWS Newport/Morehead, NC

Current Version | Previous Version | Text Only | Print | Product List | Glossary Off
Versions: 1 2 3 4 5 6 7 8 9 10 11 12 13 14 15 16 17 18 19 20 21 22 23 24 25 26 27 28 29 30 31 32 33 34 35 36 37 38 39 40 41 42 43 44 45 46 47 48 49 50
000 ASUS42 KMHX 211413 RWRMHX WEATHER ROUNDUP FOR EASTERN NORTH CAROLINA NATIONAL WEATHER SERVICE NEWPORT/MOREHEAD CITY NC 1000 AM EDT FRI JUL 21 2017 NOTE: "FAIR" INDICATES FEW OR NO CLOUDS BELOW 12,000 FEET WITH NO SIGNIFICANT WEATHER AND/OR OBSTRUCTIONS TO VISIBILITY NCZ015>017-031-032-045>047-102-103-211500- NORTH COAST CITY SKY/WX TMP DP RH WIND PRES REMARKS EDENTON SUNNY 86 76 72 CALM 30.01R ELIZABETH CITY MOSUNNY 86 78 77 W6 29.99S KITTY HAWK MOSUNNY 85 75 70 CALM 29.98S MANTEO MOSUNNY 85 76 74 SW6 30.00S $$ NCZ045>047-081-094-103-104-211500- CENTRAL COAST CITY SKY/WX TMP DP RH WIND PRES REMARKS FRISCO MOSUNNY 83 76 79 SW8 30.02S $$ NCZ095-097-098-100-101-211500- SOUTHERN COAST CITY SKY/WX TMP DP RH WIND PRES REMARKS BEAUFORT SUNNY 84 77 79 SW9 30.03S CEDAR ISLAND NOT AVBL JACKSONVILLE SUNNY 85 77 77 SW3 30.02S PINEY ISLAND SUNNY N/A N/A N/A SW7 30.02R WILMINGTON SUNNY 84 74 71 SW7 30.04S $$ NCZ011>013-027>030-043-044-078>080-089-090>093-098-211500- COASTAL PLAIN CITY SKY/WX TMP DP RH WIND PRES REMARKS AHOSKIE N/A 82 76 81 CALM 29.99S CLINTON SUNNY 83 77 81 CALM 30.03S ELIZABETHTOWN NOT AVBL GOLDSBORO SUNNY 85 80 84 W7 30.00S HX 100 GREENVILLE SUNNY 86 77 74 W6 30.02S HAVELOCK SUNNY 86 75 69 SW6 30.03S KENANSVILLE SUNNY 86 75 70 W6 30.03S KINSTON SUNNY 86 75 70 SW6 30.02S NEW BERN SUNNY 86 76 71 W6 30.03S RICHLANDS SUNNY 86 76 71 SW6 30.03S ROCKY MOUNT SUNNY 85 75 72 SW5 30.01S WASHINGTON SUNNY 85 75 71 SW5 30.01S WHITEVILLE SUNNY 84 71 66 SW5 30.04S $$ AMZ130-135-150-152-154-156-158-170-250-252-270-ANZ085-086-088-633-658-670-211500- MARINE OBSERVATIONS STATION/POSITION TIME TEMP WIND PRES WAVE SWELL AIR SEA DIR/SP/G HT/PER HT/PER (UTC) (F) (DEG/KT/KT) (MB) (FT/S) (FT/S) CHESAPEAKE LIGHT NOT AVBL 64 E VA BEACH 1350 80 80 230/ 10/ 12 1015.8 2/11 2/11 DUCK 1348 82 58 250/ 8/ 11 1015.1 2 E DUCK 1400 63 N/A 2/14 2/14 OREGON INLET 1342 82 82 210/ 8/ 9 1015.7 13E OREGON INLT 1348 78 N/A 2/14 2/14 HATTERAS CG 1348 81 79 220/ 7/ 11 1016.5 DIAMOND BUOY 1350 82 84 240/ 10/ 12 1016.8 3/11 2/11 CAPE LOOKOUT 1400 83 250/ 8/ 10 1016.7 BEAUFORT LAB 1348 83 80 210/ 7/ 10 1016.3 30 SE NEW RVR IN 1308 80 82 270/ 10/ 12 1017.2 30 SE NEW RVR IN 1343 82 N/A 3/ 8 2/12 27 SE WRIGHTSVLE 1308 81 81 250/ 10/ 14 1017.2 5 SE WRIGHTSVLE 1308 80 81 260/ 8/ 10 1017.1 225 S CAPE HAT 1350 82 83 240/ 8/ 10 1019.1 3/ 9 3/ 9 41 SE CHARLESTON 1400 82 83 250/ 8/ 10 1018.0 $$

USA.gov is the U.S. government's official web portal to all federal, state and local government web resources and services.